Location: *
(46.3500°N, 10.9000°E)
Time: 06:29:58
(UTC+00:00)

deb Explorer IX - All Passes

Search period start: 20 April 2021 00:00
Search period end: 30 April 2021 00:00
Orbit: 540 x 1099 km, 38.8° (Epoch: 19 April)

Date Brightness Start Highest point End Pass type
(mag) Time Alt. Az. Time Alt. Az. Time Alt. Az.
20 Apr - 05:58:14 10° SSW 06:01:08 18° SSE 06:04:14 10° ESE daylight
20 Apr - 07:43:00 10° WSW 07:47:04 33° S 07:51:43 10° ESE daylight
20 Apr - 09:28:59 10° WSW 09:33:21 31° S 09:38:21 10° SE daylight
20 Apr - 11:16:05 10° WSW 11:19:34 17° SSW 11:23:20 10° SSE daylight
21 Apr - 05:34:43 10° SSW 05:37:29 17° SSE 05:40:25 10° ESE daylight
21 Apr - 07:19:27 10° SW 07:23:24 32° S 07:27:51 10° ESE daylight
21 Apr - 09:05:26 10° WSW 09:09:38 30° S 09:14:25 10° SE daylight
21 Apr - 10:52:35 10° WSW 10:55:49 16° SSW 10:59:20 10° S daylight
22 Apr - 05:11:10 10° SSW 05:13:50 17° SSE 05:16:37 10° ESE daylight
22 Apr - 06:55:55 10° SW 06:59:45 31° S 07:04:01 10° ESE daylight
22 Apr - 08:41:54 10° WSW 08:45:56 29° S 08:50:31 10° SE daylight
22 Apr - 10:29:05 10° WSW 10:32:05 15° SSW 10:35:19 10° S daylight
23 Apr - 04:47:36 10° SSW 04:50:11 16° SSE 04:52:52 10° ESE daylight
23 Apr - 06:32:21 10° SW 06:36:05 30° S 06:40:12 10° ESE daylight
23 Apr - 08:18:22 10° WSW 08:22:15 28° S 08:26:37 10° SE daylight
23 Apr - 10:05:38 10° WSW 10:08:22 15° SSW 10:11:18 10° S daylight
24 Apr - 04:24:01 10° SSW 04:26:33 16° SSE 04:29:07 10° ESE daylight
24 Apr - 06:08:48 10° SW 06:12:26 30° S 06:16:24 10° ESE daylight
24 Apr - 07:54:50 10° WSW 07:58:35 27° S 08:02:46 10° SE daylight
24 Apr - 09:42:11 10° SW 09:44:39 14° SSW 09:47:17 10° S daylight
25 Apr - 04:00:25 10° SSW 04:02:53 16° SSE 04:05:25 10° ESE daylight
25 Apr - 05:45:13 10° SW 05:48:49 29° S 05:52:38 10° ESE daylight
25 Apr - 07:31:18 10° WSW 07:34:55 26° S 07:38:55 10° SE daylight
25 Apr - 09:18:46 10° SW 09:20:57 13° SSW 09:23:16 10° S daylight
26 Apr - 03:36:47 10° SSW 03:39:15 16° SSE 03:41:45 10° ESE visible
26 Apr - 05:21:39 10° SW 05:25:10 28° S 05:28:53 10° ESE daylight
26 Apr - 07:07:45 10° WSW 07:11:16 26° S 07:15:06 10° SE daylight
26 Apr - 08:55:22 10° SW 08:57:16 12° SSW 08:59:15 10° S daylight
27 Apr - 03:13:07 10° SSW 03:15:36 16° SSE 03:18:06 10° ESE visible
27 Apr - 04:58:02 10° SW 05:01:32 28° S 05:05:10 10° ESE daylight
27 Apr - 06:44:11 10° WSW 06:47:37 25° SSW 06:51:18 10° SE daylight
27 Apr - 08:32:00 10° SW 08:33:35 12° SSW 08:35:14 10° S daylight
28 Apr - 02:49:26 10° SSW 02:51:58 16° SSE 02:54:30 10° ESE visible
28 Apr - 04:34:25 10° SW 04:37:55 28° S 04:41:28 10° ESE daylight
28 Apr - 06:20:37 10° WSW 06:23:58 24° SSW 06:27:32 10° SE daylight
28 Apr - 08:08:40 10° SW 08:09:55 11° SSW 08:11:11 10° S daylight
29 Apr - 02:25:42 10° SSW 02:28:20 16° SSE 02:30:54 10° ESE visible
29 Apr - 04:10:47 10° SW 04:14:17 28° S 04:17:49 10° ESE daylight
29 Apr - 05:57:02 10° WSW 06:00:20 24° SSW 06:03:47 10° SE daylight
29 Apr - 07:45:25 10° SW 07:46:15 10° SSW 07:47:04 10° SSW daylight
